GPS BIIF-1 (PRN 25)

Last updated on Tue Sep 16 2025 00:03:16 GMT+0000 (Coordinated Universal Time)

1 36585U 10022A 25258.50662029 .00000018 00000+0 00000+0 0 9991 2 36585 54.3218 219.6286 0122563 64.2614 132.8666 2.00574542112081
UTC large
Height (km)
Speed (km/s)
/
Latitude / Longitude
Inclination (degrees)
Orbital Period (minutes)
Azimuth
Elevation
Range (km)
Doppler Factor

Next 0 passes for location: London (51.5072 / 0.1276)

Sorry there are no passes over London.